Location: Kitchener
(43.4500°N, 80.5000°W)
Time: 15:55:19
(UTC-04:00)

Daily predictions for brighter satellites

Satellite Brightness Start Highest point End
(mag) Time Altitude Azimuth Time Altitude Azimuth Time Altitude Azimuth
ATLAS 2AS CENTAUR R/B 4.4 21:35:40 10° SE 21:39:26 15° ESE 21:43:18 10° ENE
COSMOS 2428 3.1 21:38:07 10° NNW 21:43:41 51° ENE 21:49:12 10° SE
Cosmos 1437 Rocket 3.3 21:40:21 10° NNW 21:44:07 59° W 21:47:53 10° S
USA 186 4.0 21:44:03 10° SW 21:45:16 13° W 21:46:32 10° WNW
ARGOS 4.3 21:41:32 10° SE 21:46:09 30° ENE 21:50:45 10° N
ERS-1 Rocket 3.4 21:42:23 10° S 21:47:23 66° WSW 21:52:26 10° NNW
Cosmos 2219 Rocket 3.4 21:42:43 10° N 21:47:38 30° NE 21:52:29 10° ESE
Envisat 3.0 21:43:59 10° SSE 21:49:02 78° ENE 21:54:08 10° N
ATLAS 3B R/B 4.4 21:44:10 10° NNW 21:49:51 24° NNE 21:55:14 10° E
Cosmos 2266 Rocket 4.0 21:43:42 10° S 21:49:59 84° E 21:56:12 10° N
Cosmos 1939 Rocket 2.9 21:46:15 10° S 21:50:10 83° WSW 21:54:05 10° NNW
ERBS 4.4 21:50:44 10° SE 21:51:29 11° ESE 21:52:13 10° ESE
Cosmos 1805 Rocket 4.1 21:47:21 10° SSE 21:51:30 40° E 21:55:39 10° NNE
Terra 3.9 21:49:28 10° E 21:51:49 14° ENE 21:54:10 10° NNE
Cosmos 2315 Rocket 4.0 21:52:03 10° N 21:58:16 69° E 22:04:25 10° SSE
Cosmos 1726 3.0 21:57:06 10° N 22:00:35 34° ENE 22:03:46 12° SE
SL-23 DEB 4.2 21:56:20 10° WNW 22:01:50 64° SW 22:05:00 12° SE
NOSS 3-1 (C) 3.5 21:56:28 10° SSW 22:02:10 57° ESE 22:08:30 10° NE
Cosmos 2112 Rocket 4.1 21:57:31 10° NNW 22:02:46 78° WSW 22:08:01 10° SSE
Cosmos 2237 4.3 21:59:31 10° NNW 22:05:18 80° ENE 22:10:48 11° SSE
CZ-4 SHROUD 3.1 22:02:13 10° SSE 22:05:21 79° ENE 22:08:30 10° N
Cosmos 1937 Rocket 4.3 22:03:26 10° SSE 22:07:58 30° E 22:12:29 10° NE
H-2A R/B 2.9 22:04:02 10° S 22:08:27 52° W 22:12:52 10° NNW
Cosmos 1707 Rocket 3.7 22:04:49 10° N 22:09:08 60° E 22:13:15 11° SSE
Cosmos 1666 Rocket 3.8 22:09:57 10° S 22:14:11 51° E 22:18:30 10° NNE
Cosmos 2298 Rocket 4.1 22:09:08 10° S 22:14:19 57° ESE 22:19:33 10° NNE
Cosmos 1328 4.0 22:11:36 10° SSW 22:15:32 73° W 22:19:30 10° N
Tiangong 1 1.5 22:12:53 10° SW 22:15:49 39° SSE 22:18:43 10° E
Cosmos 2219 3.3 22:10:29 10° SSW 22:16:15 89° WNW 22:22:02 10° NNE
CZ-4 R/B 4.4 22:13:21 10° NNE 22:17:58 38° E 22:22:06 12° SSE
Meteor 1-4 Rocket 3.3 22:15:06 10° N 22:18:40 40° ENE 22:21:10 17° SE
Cosmos 2237 Rocket 3.2 22:15:32 10° N 22:20:46 36° NE 22:25:15 13° ESE
Cosmos 2333 4.2 22:16:59 10° NNW 22:22:45 82° ENE 22:27:36 15° SSE
CZ-4C R/B 4.3 22:21:28 16° ESE 22:23:31 27° ENE 22:26:31 10° N
Cosmos 1271 Rocket 3.2 22:22:16 10° N 22:26:00 46° ENE 22:28:33 18° SE
MetOp-B 4.3 22:24:04 10° S 22:29:24 74° WSW 22:34:47 10° NNW
CZ-4B R/B 3.5 22:24:49 10° NNE 22:30:06 71° ESE 22:35:16 10° S
Cosmos 2360 Rocket 3.6 22:26:14 10° NW 22:31:15 33° WSW 22:36:15 10° SSW
Cosmos 1745 Rocket 4.3 22:27:24 13° SSE 22:32:42 48° E 22:38:34 10° NNE
NOSS 0 Rocket 4.2 22:26:37 10° NNW 22:32:43 59° ENE 22:37:22 18° SE
Cosmos 1703 3.6 22:32:28 18° SSE 22:35:04 46° E 22:38:50 10° NNE
Iridium 2 4.3 22:33:22 20° SSE 22:35:32 39° E 22:39:09 10° NNE
SL-14 R/B 3.2 22:31:47 10° S 22:35:44 88° E 22:39:46 10° N
NOAA 11 4.2 22:32:41 16° SSE 22:37:06 75° ENE 22:42:35 10° N
Meteor 1-27 4.4 22:32:25 10° NNW 22:38:06 75° W 22:43:18 12° S
H-2A R/B 2.7 22:36:57 18° SE 22:40:38 45° ENE 22:45:48 10° N
Cosmos 1626 3.2 22:41:26 22° SE 22:42:44 28° E 22:45:59 10° NNE
SPOT 5 4.1 22:42:37 10° SSW 22:46:51 37° W 22:51:21 10° NNW
Delta 2 Rocket 4.3 22:45:51 10° WSW 22:48:32 20° S 22:48:40 20° S
Cosmos 1898 Rocket 3.6 22:47:15 10° SSW 22:52:26 78° WNW 22:57:40 10° NNE
YAOGAN 6 3.7 22:50:10 13° SSW 22:53:03 38° W 22:56:27 10° NNW
SPOT 1/Viking Rocket 3.9 22:48:49 15° S 22:53:05 63° WSW 22:58:14 10° NNW
Lacrosse 4 Rocket 3.2 22:52:07 10° N 22:55:48 25° NE 22:58:32 15° E
Cosmos 2227 Rocket 2.3 22:55:43 14° S 23:00:32 57° ESE 23:06:05 10° NNE
Cosmos 1300 4.3 22:57:09 10° NNW 23:00:34 31° W 23:03:49 11° SSW
Cosmos 292 Rocket 4.1 23:01:07 10° NNW 23:05:48 57° WSW 23:08:40 22° S
Cosmos 2242 Rocket 4.1 23:01:53 10° NNW 23:06:16 56° W 23:09:20 19° SSW
NOSS 3-1 (A) 3.7 23:00:48 10° SW 23:06:44 72° NW 23:13:22 10° NE
Sich 1 4.0 23:03:34 10° SSW 23:07:50 47° WNW 23:12:06 10° N
Cosmos 1862 Rocket 3.5 23:03:45 10° N 23:08:05 69° E 23:10:02 31° SSE
CARTOSAT-1 3.5 23:08:07 30° SSE 23:10:10 74° ENE 23:14:30 10° N
COSMOS 2455 3.4 23:04:28 10° NNW 23:10:18 48° NE 23:14:03 21° ESE
Cosmos 1633 Rocket 4.1 23:08:46 10° SSW 23:12:56 44° WNW 23:17:07 10° N
Landsat 7 3.9 23:10:20 25° S 23:13:04 77° WSW 23:17:51 10° NNW
SL-16 R/B 2.9 23:09:38 10° NNW 23:15:03 43° ENE 23:18:12 23° ESE
Cosmos 1933 4.3 23:12:22 10° N 23:16:05 33° ENE 23:17:12 28° ESE
Cosmos 2333 Rocket 2.3 23:10:26 10° NNW 23:16:12 78° WSW 23:19:24 28° SSE
SAR-Lupe-2 3.6 23:15:11 41° SE 23:16:15 66° ENE 23:19:48 10° N
Cosmos 1346 3.2 23:20:05 44° SSW 23:20:52 72° W 23:23:55 10° N
FALCON 9 R/B 4.0 22:57:12 10° W 23:22:19 55° SSW 23:27:17 22° SE
Cosmos 1455 2.2 23:19:19 10° N 23:23:08 78° W 23:24:28 39° S
BREEZE-M DEB (TANK) 2.1 23:22:34 10° WNW 23:24:37 72° NNE 23:25:19 45° E
ARGOS 4.2 23:22:17 16° SSW 23:26:14 39° W 23:31:17 10° NNW
Cosmos 2297 Rocket 2.2 23:23:49 23° S 23:27:21 66° ESE 23:32:58 10° NNE
COSMOS 2428 4.4 23:23:05 10° NW 23:27:34 24° WSW 23:31:38 12° SSW
ERBS 2.4 23:24:18 10° SW 23:27:48 81° NW 23:31:18 10° NE
Terra 1.8 23:26:41 31° S 23:28:56 76° WSW 23:33:43 10° NNW
ATLAS 2AS CENTAUR R/B 2.9 23:21:32 10° SSW 23:28:58 72° ESE 23:37:01 10° NE
DMSP B5D2-2 4.0 23:25:49 10° NNE 23:31:04 86° ESE 23:34:06 26° SSW
Cosmos 2219 Rocket 2.9 23:26:26 10° NW 23:31:43 44° WSW 23:34:43 24° SSW
Spot 4 3.8 23:34:28 35° S 23:36:31 83° WSW 23:41:25 10° NNW
Cosmos 1869 Rocket 4.2 23:36:29 36° ESE 23:37:20 40° E 23:41:32 10° NNE
Aureole 2 Rocket 4.5 23:35:27 10° NNE 23:37:32 16° ENE 23:38:01 16° ENE
IGS 5A 3.7 23:36:25 37° SSW 23:37:54 64° W 23:42:04 10° NNW
Cosmos 468 4.5 23:36:00 10° NNW 23:41:23 86° WSW 23:43:31 38° SSE
ATLAS 3B R/B 2.7 23:34:40 10° NW 23:41:45 78° NE 23:45:16 30° SE
Cosmos 1900 4.2 23:39:39 10° NNW 23:44:40 85° ENE 23:46:21 42° SE
OAO 2 Rocket 4.2 23:44:04 10° WSW 23:48:05 32° SSW 23:48:05 32° SSW
COS B Rocket 3.6 23:45:15 10° N 23:49:04 53° E 23:49:37 48° ESE
Cosmos 1869 4.0 23:45:24 10° NNW 23:49:17 47° W 23:50:34 34° SW
Tiangong 1 2.3 23:49:10 10° W 23:51:01 33° W 23:51:01 33° W
Cosmos 1980 4.5 23:47:18 10° NW 23:52:35 42° WSW 23:55:01 27° SSW
ALOS 2 4.2 23:52:44 21° E 23:54:00 23° ENE 23:57:29 10° NNE
